Zurück zum Katalog

STARLINK-36995

AktivKommunikationSSO
NORAD 68143·PAYLOAD·🇺🇸 United States

Gestartet Mar 13, 2026 von Vandenberg Space Force Base

Loading…

Nächste Überflüge (nächste 24 Stunden)

TLE

AktuellSource: CelesTrak SupGP

Epoche: Sep 14, 2026, 14:33 UTC

1 68143C 26049B   26257.60673611 -.00029676  00000+0 -92086-3 0  2571
2 68143  97.2839 277.6399 0001967 107.8287  30.7992 15.33465002    11

Verfolge STARLINK-36995 in Echtzeit mit AllMySat

Download on the App Store